Weather History for Minot AFB, ND

Change the Weather History Date:

Sunday, February 17, 2013

  Actual Average Record
Temperature  
Mean Temperature 27 °F -  
Max Temperature 37 °F 24 °F 41 °F (1997)
Min Temperature 17 °F 8 °F -11 °F (2001)
Degree Days  
Heating Degree Days 38    
Moisture  
Dew Point 26 °F    
Average Humidity 90    
Maximum Humidity 100    
Minimum Humidity 75    
Precipitation  
Precipitation 0.00 in - - ()
Sea Level Pressure  
Sea Level Pressure 29.58 in    
Wind  
Wind Speed 16 mph (NNW)    
Max Wind Speed 28 mph    
Max Gust Speed 32 mph    
Visibility 4 miles    
Events Snow    
Averages and records for this station are not official NWS values.
T = Trace of Precipitation, MM = Missing Value Source: NWS Daily Summary

Daily Weather History Graph

Daily Weather History Graph

Search for Another Location

Airport:

Trip Planner

Search our weather history database for the weather conditions in past years. The results will help you decide how hot, cold, wet, or windy it might be!

Date:

Astronomy

Feb. 17, 2013 Rise Set
Actual Time 7:48 AM CST 6:10 PM CST
Civil Twilight 7:16 AM CST 6:43 PM CST
Nautical Twilight 6:40 AM CST 7:19 PM CST
Astronomical Twilight 6:03 AM CST 7:55 PM CST
Moon 11:05 AM CST 1:45 AM CST
Length of Visible Light 11h 26m
Length of Day
10h 22m
Waxing Crescent, 49% of the Moon is Illuminated
Feb 17
Waxing Crescent
Feb 17
First Quarter
Feb 25
Full
Mar 4
Last Quarter
Mar 11
New

Hourly Weather History & Observations

Time (CST) Temp. Windchill Dew Point Humidity Pressure Visibility Wind Dir Wind Speed Gust Speed Precip Events Conditions
12:55 AM 28.8 °F 19.5 °F 25.3 °F 87% 29.71 in 10.0 mi South 10.4 mph - N/A   Clear
1:55 AM 30.4 °F 21.5 °F 27.3 °F 88% 29.68 in 10.0 mi SSE 10.4 mph - N/A   Scattered Clouds
2:55 AM 34.7 °F 26.4 °F 29.5 °F 81% 29.64 in 10.0 mi SSW 11.5 mph - N/A   Scattered Clouds
3:55 AM 33.1 °F 23.0 °F 28.0 °F 82% 29.59 in 10.0 mi SSW 15.0 mph - N/A   Overcast
4:55 AM 33.6 °F 23.7 °F 28.2 °F 81% 29.57 in 10.0 mi SSW 15.0 mph - N/A   Overcast
5:55 AM 33.1 °F 23.0 °F 27.9 °F 81% 29.56 in 10.0 mi SSW 15.0 mph - N/A   Overcast
6:55 AM 33.8 °F 24.8 °F 28.0 °F 79% 29.52 in 10.0 mi SW 12.7 mph - N/A   Mostly Cloudy
7:55 AM 34.2 °F 26.2 °F 28.2 °F 79% 29.52 in 10.0 mi SW 10.4 mph - N/A   Clear
8:55 AM 34.7 °F 25.1 °F 28.6 °F 78% 29.51 in 10.0 mi WSW 15.0 mph - N/A   Clear
9:55 AM 34.0 °F 23.8 °F 28.6 °F 81% 29.50 in 10.0 mi West 16.1 mph - N/A   Clear
10:55 AM 36.3 °F 28.0 °F 30.0 °F 78% 29.49 in 10.0 mi West 12.7 mph - N/A   Partly Cloudy
11:55 AM 37.6 °F 31.0 °F 30.4 °F 75% 29.48 in 10.0 mi West 9.2 mph - N/A   Clear
12:55 PM 36.5 °F 27.8 °F 30.4 °F 78% 29.47 in 10.0 mi West 13.8 mph - N/A   Partly Cloudy
1:55 PM 36.5 °F 27.0 °F 30.4 °F 78% 29.46 in 10.0 mi West 16.1 mph - N/A   Clear
2:55 PM 36.1 °F 28.7 °F 30.6 °F 80% 29.46 in 10.0 mi West 10.4 mph - N/A   Clear
3:46 PM 35.6 °F 27.1 °F 30.2 °F 81% 29.48 in 10.0 mi WNW 12.7 mph - N/A   Overcast
3:55 PM 35.1 °F 26.4 °F 30.7 °F 84% 29.48 in 10.0 mi WNW 12.7 mph - N/A   Overcast
4:36 PM 35.6 °F 26.2 °F 30.2 °F 81% 29.48 in 10.0 mi WNW 15.0 mph - N/A   Overcast
4:55 PM 34.5 °F 24.5 °F 31.3 °F 88% 29.48 in 10.0 mi WNW 16.1 mph - N/A   Overcast
5:44 PM 33.8 °F 23.5 °F 30.2 °F 87% 29.49 in 9.0 mi NW 16.1 mph - N/A   Scattered Clouds
5:55 PM 32.7 °F 22.1 °F 30.7 °F 92% 29.49 in 5.0 mi NW 16.1 mph - 0.00 in   Partly Cloudy
6:17 PM 32.0 °F 21.2 °F 30.2 °F 93% 29.50 in 3.0 mi NW 16.1 mph - N/A Snow Light Snow
6:21 PM 32.0 °F 21.2 °F 30.2 °F 93% 29.50 in 2.5 mi NW 16.1 mph - N/A Snow Light Snow
6:34 PM 32.0 °F 20.5 °F 30.2 °F 93% 29.51 in 3.0 mi NNW 18.4 mph - N/A Snow Light Snow
6:38 PM 32.0 °F 21.2 °F 30.2 °F 93% 29.51 in 3.0 mi NNW 16.1 mph - N/A Snow Light Snow
6:52 PM 32.0 °F 20.8 °F 30.2 °F 93% 29.52 in 3.0 mi NW 17.3 mph - N/A Snow Light Snow
6:53 PM 32.0 °F 21.2 °F 30.2 °F 93% 29.52 in 2.5 mi NW 16.1 mph - N/A Snow Light Snow
6:55 PM 31.6 °F 20.7 °F 30.7 °F 96% 29.52 in 2.0 mi NW 16.1 mph - 0.00 in Snow Light Snow
6:57 PM 32.0 °F 21.2 °F 30.2 °F 93% 29.52 in 1.8 mi NW 16.1 mph - N/A Snow Light Snow
6:59 PM 32.0 °F 20.8 °F 30.2 °F 93% 29.52 in 1.5 mi NW 17.3 mph - N/A Snow Light Snow
7:00 PM 32.0 °F 20.8 °F 30.2 °F 93% 29.53 in 1.2 mi NW 17.3 mph - N/A Snow Light Snow
7:03 PM 32.0 °F 22.1 °F 30.2 °F 93% 29.53 in 1.0 mi NW 13.8 mph - N/A Snow Light Snow
7:06 PM 32.0 °F 21.6 °F 30.2 °F 93% 29.53 in 1.0 mi NW 15.0 mph - N/A Snow Light Snow
7:07 PM 32.0 °F 20.8 °F 30.2 °F 93% 29.53 in 1.0 mi NW 17.3 mph - N/A Snow Light Snow
7:10 PM 32.0 °F 21.2 °F 30.2 °F 93% 29.53 in 0.8 mi NW 16.1 mph - N/A Snow Light Snow
7:12 PM 32.0 °F 20.8 °F 30.2 °F 93% 29.53 in 0.8 mi NW 17.3 mph - N/A Snow Light Snow
7:20 PM 32.0 °F 21.2 °F 30.2 °F 93% 29.54 in 0.8 mi NNW 16.1 mph - N/A Snow Light Snow
7:21 PM 32.0 °F 21.2 °F 30.2 °F 93% 29.54 in 0.8 mi NNW 16.1 mph - N/A Snow Light Snow
7:22 PM 32.0 °F 20.8 °F 30.2 °F 93% 29.54 in 1.0 mi NNW 17.3 mph - N/A Snow Light Snow
7:25 PM 32.0 °F 20.8 °F 30.2 °F 93% 29.54 in 1.2 mi NNW 17.3 mph - N/A Snow Light Snow
7:28 PM 32.0 °F 20.8 °F 30.2 °F 93% 29.54 in 1.5 mi NNW 17.3 mph - N/A Snow Light Snow
7:41 PM 32.0 °F 20.5 °F 30.2 °F 93% 29.55 in 1.5 mi North 18.4 mph 23.0 mph N/A Snow Light Snow
7:53 PM 30.2 °F 18.1 °F 28.4 °F 93% 29.55 in 1.2 mi North 18.4 mph 24.2 mph N/A Snow Light Snow
7:55 PM 29.7 °F 17.4 °F 29.1 °F 98% 29.55 in 1.2 mi North 18.4 mph 24.2 mph 0.00 in Snow Light Snow
8:01 PM 30.2 °F 18.5 °F 28.4 °F 93% 29.56 in 1.2 mi North 17.3 mph 24.2 mph N/A Snow Light Snow
8:08 PM 28.4 °F 16.6 °F 28.4 °F 100% 29.56 in 1.2 mi North 16.1 mph 24.2 mph N/A   Overcast
8:13 PM 28.4 °F 16.2 °F 28.4 °F 100% 29.57 in 1.2 mi North 17.3 mph 24.2 mph N/A   Overcast
8:16 PM 28.4 °F 17.0 °F 28.4 °F 100% 29.57 in 1.5 mi North 15.0 mph 24.2 mph N/A   Overcast
8:45 PM 28.4 °F 16.6 °F 28.4 °F 100% 29.59 in 1.8 mi North 16.1 mph 21.9 mph N/A Snow Light Snow
8:51 PM 28.4 °F 14.4 °F 28.4 °F 100% 29.59 in 1.5 mi North 23.0 mph 31.1 mph N/A Snow Light Snow
8:52 PM 28.4 °F 15.1 °F 26.6 °F 93% 29.59 in 1.2 mi North 20.7 mph 31.1 mph N/A Snow Light Snow
8:55 PM 27.9 °F 14.0 °F 27.0 °F 96% 29.60 in 1.0 mi North 21.9 mph 31.1 mph 0.00 in Snow Light Snow
8:57 PM 28.4 °F 14.7 °F 26.6 °F 93% 29.60 in 1.0 mi North 21.9 mph 31.1 mph N/A   Mist
8:58 PM 28.4 °F 14.4 °F 26.6 °F 93% 29.60 in 1.0 mi North 23.0 mph 31.1 mph N/A   Mist
9:08 PM 26.6 °F 11.7 °F 24.8 °F 93% 29.61 in 0.8 mi North 24.2 mph 32.2 mph N/A   Mist
9:17 PM 24.8 °F 9.6 °F 23.0 °F 93% 29.62 in 1.0 mi North 23.0 mph 32.2 mph N/A   Mist
9:25 PM 24.8 °F 10.3 °F 23.0 °F 93% 29.63 in 1.0 mi North 20.7 mph 32.2 mph N/A   Mist
9:35 PM 23.0 °F 6.3 °F 21.2 °F 93% 29.64 in 1.0 mi North 26.5 mph 32.2 mph N/A Snow Light Snow
9:38 PM 23.0 °F 6.3 °F 21.2 °F 93% 29.65 in 1.0 mi North 26.5 mph 32.2 mph N/A Snow Light Snow
9:47 PM 21.2 °F 3.5 °F 19.4 °F 93% 29.65 in 0.8 mi North 27.6 mph - N/A Snow Light Snow
9:51 PM 21.2 °F 4.2 °F 19.4 °F 93% 29.66 in 0.8 mi North 25.3 mph 32.2 mph N/A Snow Light Snow
9:55 PM 21.0 °F 4.6 °F 19.0 °F 92% 29.66 in 0.8 mi North 23.0 mph 32.2 mph 0.00 in Snow Light Snow
9:58 PM 21.2 °F 4.2 °F 19.4 °F 93% 29.67 in 1.0 mi North 25.3 mph 32.2 mph N/A Snow Light Snow
10:04 PM 21.2 °F 4.2 °F 19.4 °F 93% 29.67 in 0.8 mi North 25.3 mph 31.1 mph N/A Snow Light Snow
10:14 PM 21.2 °F 4.2 °F 17.6 °F 86% 29.68 in 1.0 mi North 25.3 mph 31.1 mph N/A Snow Light Snow
10:25 PM 21.2 °F 5.2 °F 17.6 °F 86% 29.69 in 1.0 mi North 21.9 mph - N/A Snow Light Snow
10:28 PM 21.2 °F 5.2 °F 17.6 °F 86% 29.69 in 1.0 mi North 21.9 mph 31.1 mph N/A Snow Light Snow
10:30 PM 21.2 °F 6.0 °F 17.6 °F 86% 29.69 in 1.2 mi North 19.6 mph 31.1 mph N/A Snow Light Snow
10:38 PM 19.4 °F 2.1 °F 17.6 °F 93% 29.70 in 1.2 mi North 24.2 mph 31.1 mph N/A Snow Light Snow
10:45 PM 19.4 °F 2.5 °F 17.6 °F 93% 29.70 in 1.5 mi North 23.0 mph 31.1 mph N/A Snow Light Snow
10:55 PM 19.6 °F 3.9 °F 17.4 °F 91% 29.71 in 1.8 mi North 19.6 mph 29.9 mph 0.00 in Snow Light Snow
11:11 PM 19.4 °F 2.1 °F 15.8 °F 86% 29.72 in 1.5 mi North 24.2 mph 28.8 mph N/A Snow Light Snow
11:24 PM 17.6 °F 0.1 °F 15.8 °F 93% 29.73 in 1.5 mi North 23.0 mph 28.8 mph N/A Snow Light Snow
11:31 PM 17.6 °F 0.1 °F 15.8 °F 93% 29.74 in 1.5 mi North 23.0 mph 28.8 mph N/A Snow Light Snow
11:33 PM 17.6 °F 0.9 °F 15.8 °F 93% 29.74 in 1.8 mi North 20.7 mph 27.6 mph N/A Snow Light Snow
11:34 PM 17.6 °F 1.3 °F 15.8 °F 93% 29.74 in 2.0 mi North 19.6 mph 27.6 mph N/A Snow Light Snow
11:38 PM 17.6 °F 1.7 °F 15.8 °F 93% 29.75 in 3.0 mi NNW 18.4 mph 27.6 mph N/A Snow Light Snow
11:55 PM 18.1 °F 2.0 °F 15.3 °F 88% 29.75 in 3.0 mi North 19.6 mph 25.3 mph 0.00 in Snow Light Snow